Location: Brede
(50.9167°N, 0.6000°E)
Time: 17:59:35
(UTC+00:00)

Tiros 1 despin weight - Pass Details

Date: 26 November 2020
Orbit: 594 x 641 km, 48.2° (Epoch: 15 January)

Event Time Altitude Azimuth Distance (km) Brightness Sun altitude
Rises 18:47:22 0° 279° (W) 2,938 ? -25.9°
Reaches altitude 10° 18:50:11 10° 263° (W) 2,021 ? -26.4°
Maximum altitude 18:53:36 21° 215° (SW) 1,437 ? -26.9°
Enters shadow 18:55:06 18° 189° (S) 1,559 ? -27.2°
